Location: Byhalia Creek
(34.8270°N, 89.8040°W)
Time: 20:23:53
(UTC+00:00)

Gbstr 26 Del rocket - Pass Details

Date: 22 April 2026
Orbit: 490 x 1215 km, 51.8° (Epoch: 21 May)

Event Time Altitude Azimuth Distance (km) Brightness Sun altitude
Rises 10:07:59 0° 312° (NW) 2,566 6.0 -14.4°
Reaches altitude 10° 10:10:08 10° 312° (NW) 1,677 5.1 -14.0°
Maximum altitude 10:13:50 86° 223° (SW) 507 2.5 -13.3°
Drops below altitude 10° 10:17:47 10° 135° (SE) 1,788 5.7 -12.6°
Sets 10:20:08 0° 135° (SE) 2,754 6.7 -12.1°
